This demonstration page uses our WeatherBlox Daily Observations layout. Learn more.

38.88101, -77.10428

Hourly Observations for March 2, 2016

Temp ( °F °C ) Dew Point ( °F °C ) Humidity (%) Winds ( mph kmh ) Pressure ( in mb ) Visibility ( mi km ) Precip ( " mm )
12:52 am 00:52 Cloudy with Light Rain 57 14 50 10 77 77 SSW 13 20 29.56 1001 9 14.484096 0.02 0.508
1:52 am 01:52 Cloudy with Light Rain 55 13 54 12 94 94 SSW 16 26 29.59 1002 7 11.265408 0.04 1.016
2:52 am 02:52 Cloudy with Light Rain 57 14 52 11 82 82 W 13 20 29.59 1002 10 16.09344 0.03 0.762
3:52 am 03:52 Cloudy 54 12 46 8 77 77 WSW 8 13 29.59 1002 10 16.09344 0.01 0.254
4:52 am 04:52 Mostly Cloudy 52 11 36 2 54 54 NW 31 50 29.65 1004 10 16.09344 0.001 0.001
5:52 am 05:52 Mostly Clear 46 8 28 -2 50 50 NW 23 37 29.71 1006 10 16.09344 0 0
6:52 am 06:52 Mostly Sunny 43 6 27 -3 53 53 NW 21 33 29.77 1008 10 16.09344 0 0
7:52 am 07:52 Partly Cloudy 39 4 25 -4 56 56 WNW 24 39 29.83 1010 10 16.09344 0 0
8:52 am 08:52 Partly Cloudy 39 4 21 -6 48 48 WNW 21 33 29.88 1012 10 16.09344 0 0
9:52 am 09:52 Partly Cloudy 39 4 19 -7 45 45 NW 21 33 29.91 1013 10 16.09344 0 0
10:52 am 10:52 Partly Cloudy 39 4 18 -8 42 42 NNW 36 57 29.94 1014 10 16.09344 0 0
11:52 am 11:52 Partly Cloudy 43 6 18 -8 36 36 NW 25 41 29.97 1015 10 16.09344 0 0
12:52 pm 12:52 Partly Cloudy 41 5 16 -9 36 36 WNW 22 35 29.94 1014 10 16.09344 0 0
1:52 pm 13:52 Mostly Sunny 43 6 18 -8 36 36 NNW 21 33 29.94 1014 10 16.09344 0 0
2:52 pm 14:52 Mostly Sunny 43 6 16 -9 34 34 NW 23 37 29.97 1015 10 16.09344 0 0
3:52 pm 15:52 Mostly Sunny 41 5 16 -9 36 36 NW 21 33 30 1016 10 16.09344 0 0
4:52 pm 16:52 Mostly Sunny 39 4 16 -9 39 39 NNW 24 39 30.03 1017 10 16.09344 0 0
5:52 pm 17:52 Mostly Sunny 37 3 16 -9 41 41 WNW 18 30 30.06 1018 10 16.09344 0 0
6:52 pm 18:52 Clear 36 2 14 -10 41 41 NW 14 22 30.12 1020 10 16.09344 0 0
7:52 pm 19:52 Clear 36 2 14 -10 41 41 NW 13 20 30.15 1021 10 16.09344 0 0
8:52 pm 20:52 Clear 34 1 12 -11 41 41 NNW 16 26 30.18 1022 10 16.09344 0 0
9:52 pm 21:52 Clear 34 1 12 -11 41 41 NNW 13 20 30.21 1023 10 16.09344 0 0
10:52 pm 22:52 Clear 32 0 12 -11 44 44 NNW 8 13 30.21 1023 10 16.09344 0 0
11:52 pm 23:52 Clear 30 -1 12 -11 47 47 NW 7 11 30.21 1023 10 16.09344 0 0

Powered by AerisWeather